timestamp,wind_dir_avg,wind_spd_avg,wind_spd_max_dir,wind_spd_gust,battery_voltage,lat,long
2021-10-04 00:04:00+00:00,15.0,5.64,16.0,7.17,12.65,47.59359,-54.27349
2021-10-04 00:14:01+00:00,18.0,5.97,17.0,6.39,12.65,47.59359,-54.27349
2021-10-04 00:24:01+00:00,23.0,6.04,28.0,6.59,12.65,47.59359,-54.27349
2021-10-04 00:34:01+00:00,15.0,5.68,16.0,6.55,12.65,47.59359,-54.27349
2021-10-04 00:44:01+00:00,14.0,6.47,14.0,7.27,12.65,47.59359,-54.27349
2021-10-04 00:54:01+00:00,21.0,6.67,16.0,7.72,12.65,47.59359,-54.27349
2021-10-04 01:04:01+00:00,10.0,5.03,1.0,5.85,12.65,47.59359,-54.27349
2021-10-04 01:14:01+00:00,17.0,4.68,14.0,5.28,12.65,47.59359,-54.27349
2021-10-04 01:24:01+00:00,6.0,4.62,5.0,5.69,12.65,47.59359,-54.27349
2021-10-04 01:34:01+00:00,11.0,4.6,17.0,5.49,12.65,47.59359,-54.27349
2021-10-04 01:44:01+00:00,18.0,6.01,13.0,6.84,12.65,47.59359,-54.27349
2021-10-04 01:54:01+00:00,23.0,7.12,20.0,7.96,12.65,47.59359,-54.27349
2021-10-04 02:04:01+00:00,25.0,6.92,23.0,7.59,12.65,47.59359,-54.27349
2021-10-04 02:14:01+00:00,25.0,6.77,25.0,7.51,12.57,47.59359,-54.27349
2021-10-04 02:24:01+00:00,31.0,7.47,29.0,8.4,12.57,47.59359,-54.27349
2021-10-04 02:34:01+00:00,23.0,7.84,24.0,8.85,12.57,47.59359,-54.27349
2021-10-04 02:44:01+00:00,19.0,7.02,26.0,8.65,12.57,47.59359,-54.27349
2021-10-04 02:54:01+00:00,24.0,7.71,24.0,8.35,12.57,47.59359,-54.27349
2021-10-04 03:04:01+00:00,27.0,8.57,26.0,9.16,12.57,47.59359,-54.27349
2021-10-04 03:14:00+00:00,23.0,8.38,18.0,9.46,12.57,47.59359,-54.27349
2021-10-04 03:24:00+00:00,25.0,8.61,25.0,9.65,12.57,47.59359,-54.27349
2021-10-04 03:34:00+00:00,33.0,8.49,47.0,11.13,12.57,47.59359,-54.27349
2021-10-04 03:44:00+00:00,29.0,7.73,52.0,10.58,12.57,47.59359,-54.27349
2021-10-04 03:54:00+00:00,26.0,7.69,26.0,8.63,12.57,47.59359,-54.27349
2021-10-04 04:04:00+00:00,49.0,9.19,58.0,11.5,12.57,47.59359,-54.27349
2021-10-04 04:14:01+00:00,40.0,9.02,45.0,10.74,12.57,47.59359,-54.27349
2021-10-04 04:24:01+00:00,43.0,9.1,57.0,11.0,12.57,47.59359,-54.27349
2021-10-04 04:34:01+00:00,43.0,9.67,54.0,11.74,12.57,47.59359,-54.27349
2021-10-04 04:44:01+00:00,54.0,9.88,60.0,11.57,12.57,47.59359,-54.27349
2021-10-04 04:54:01+00:00,51.0,9.66,56.0,11.57,12.57,47.59359,-54.27349
2021-10-04 05:04:01+00:00,46.0,7.07,62.0,10.92,12.57,47.59359,-54.27349
2021-10-04 05:14:01+00:00,47.0,8.7,59.0,11.56,12.57,47.59359,-54.27349
2021-10-04 05:24:01+00:00,32.0,7.02,36.0,7.89,12.57,47.59359,-54.27349
2021-10-04 05:34:01+00:00,46.0,7.73,62.0,10.91,12.57,47.59359,-54.27349
2021-10-04 05:44:01+00:00,31.0,7.54,25.0,8.14,12.57,47.59359,-54.27349
2021-10-04 05:54:01+00:00,30.0,7.25,29.0,8.34,12.57,47.59359,-54.27349
2021-10-04 06:04:01+00:00,37.0,7.4,44.0,8.43,12.57,47.59359,-54.27349
2021-10-04 06:14:01+00:00,41.0,6.74,56.0,8.75,12.57,47.59359,-54.27349
2021-10-04 06:24:01+00:00,38.0,7.07,50.0,8.23,12.57,47.59359,-54.27349
2021-10-04 06:34:01+00:00,35.0,6.82,35.0,7.42,12.57,47.59359,-54.27349
2021-10-04 06:44:01+00:00,42.0,6.77,42.0,7.36,12.57,47.59359,-54.27349
2021-10-04 06:54:01+00:00,35.0,7.11,52.0,8.81,12.57,47.59359,-54.27349
2021-10-04 07:04:01+00:00,43.0,8.3,52.0,9.61,12.57,47.59359,-54.27349
2021-10-04 07:14:01+00:00,50.0,7.94,61.0,10.4,12.49,47.59359,-54.27349
2021-10-04 07:24:01+00:00,48.0,7.68,57.0,10.01,12.49,47.59359,-54.27349
2021-10-04 07:34:01+00:00,55.0,8.98,70.0,11.07,12.49,47.59359,-54.27349
2021-10-04 07:44:01+00:00,40.0,7.68,62.0,10.6,12.49,47.59359,-54.27349
2021-10-04 07:54:01+00:00,45.0,8.93,38.0,11.27,12.49,47.59359,-54.27349
2021-10-04 08:04:01+00:00,58.0,10.12,64.0,11.46,12.49,47.59359,-54.27349
2021-10-04 08:14:01+00:00,54.0,9.64,65.0,11.09,12.49,47.59359,-54.27349
2021-10-04 08:24:01+00:00,40.0,8.91,42.0,10.26,12.49,47.59359,-54.27349
2021-10-04 08:34:01+00:00,47.0,8.95,60.0,11.41,12.49,47.59359,-54.27349
2021-10-04 08:44:01+00:00,48.0,8.82,63.0,10.4,12.49,47.59359,-54.27349
2021-10-04 08:54:01+00:00,36.0,7.82,38.0,9.29,12.49,47.59359,-54.27349
2021-10-04 09:04:01+00:00,39.0,8.3,52.0,10.35,12.49,47.59359,-54.27349
2021-10-04 09:14:01+00:00,45.0,9.05,53.0,10.41,12.41,47.59359,-54.27349
2021-10-04 09:24:01+00:00,38.0,7.39,51.0,9.33,12.41,47.59359,-54.27349
2021-10-04 09:34:01+00:00,48.0,8.0,57.0,10.59,12.41,47.59359,-54.27349
2021-10-04 09:44:01+00:00,35.0,8.11,48.0,9.42,12.41,47.59359,-54.27349
2021-10-04 09:54:01+00:00,37.0,7.43,46.0,8.43,12.41,47.59359,-54.27349
2021-10-04 10:04:01+00:00,24.0,8.03,24.0,9.69,12.41,47.59359,-54.27349
2021-10-04 10:14:00+00:00,26.0,7.7,27.0,8.64,12.41,47.59359,-54.27349
2021-10-04 10:24:00+00:00,25.0,7.91,23.0,9.11,12.41,47.59359,-54.27349
2021-10-04 10:34:00+00:00,36.0,7.36,35.0,8.26,12.41,47.59359,-54.27349
2021-10-04 10:44:00+00:00,29.0,7.39,29.0,8.49,12.41,47.59359,-54.27349
2021-10-04 10:54:00+00:00,34.0,7.67,48.0,10.56,12.41,47.59359,-54.27349
2021-10-04 11:04:00+00:00,32.0,7.79,30.0,9.13,12.41,47.59359,-54.27349
2021-10-04 11:14:01+00:00,35.0,8.12,35.0,8.99,12.57,47.59359,-54.27349
2021-10-04 11:24:01+00:00,29.0,7.41,33.0,9.02,12.57,47.59359,-54.27349
2021-10-04 11:34:01+00:00,30.0,8.76,25.0,9.6,12.57,47.59359,-54.27349
2021-10-04 11:44:01+00:00,35.0,9.77,40.0,11.19,12.57,47.59359,-54.27349
2021-10-04 11:54:01+00:00,32.0,9.79,30.0,10.87,12.57,47.59359,-54.27349
2021-10-04 12:04:01+00:00,33.0,8.81,35.0,10.02,12.57,47.59359,-54.27349
2021-10-04 12:14:00+00:00,30.0,9.66,29.0,11.09,13.29,47.59359,-54.27349
2021-10-04 12:24:00+00:00,38.0,9.25,32.0,10.18,13.29,47.59359,-54.27349
2021-10-04 12:34:00+00:00,27.0,8.82,32.0,10.03,13.29,47.59359,-54.27349
2021-10-04 12:44:00+00:00,33.0,7.74,31.0,8.93,13.29,47.59359,-54.27349
2021-10-04 12:54:00+00:00,46.0,7.81,49.0,9.36,13.29,47.59359,-54.27349
2021-10-04 13:04:00+00:00,33.0,8.04,33.0,9.29,13.29,47.59359,-54.27349
2021-10-04 13:14:01+00:00,37.0,8.39,37.0,9.25,13.84,47.59359,-54.27349
2021-10-04 13:24:01+00:00,28.0,9.04,39.0,10.08,13.84,47.59359,-54.27349
2021-10-04 13:34:01+00:00,43.0,7.27,46.0,8.55,13.84,47.59359,-54.27349
2021-10-04 13:44:01+00:00,33.0,7.97,31.0,9.02,13.84,47.59359,-54.27349
2021-10-04 13:54:01+00:00,37.0,8.29,41.0,9.58,13.84,47.59359,-54.27349
2021-10-04 14:04:01+00:00,44.0,7.38,38.0,8.36,13.84,47.59359,-54.27349
2021-10-04 14:14:01+00:00,42.0,8.31,42.0,9.33,13.92,47.59359,-54.27349
2021-10-04 14:24:01+00:00,36.0,7.29,32.0,8.2,13.92,47.59359,-54.27349
2021-10-04 14:34:01+00:00,45.0,6.28,43.0,7.56,13.92,47.59359,-54.27349
2021-10-04 14:44:01+00:00,49.0,7.6,56.0,9.64,13.92,47.59359,-54.27349
2021-10-04 14:54:01+00:00,35.0,7.0,32.0,7.82,13.92,47.59359,-54.27349
2021-10-04 15:04:01+00:00,44.0,6.68,46.0,7.71,13.92,47.59359,-54.27349
2021-10-04 15:14:01+00:00,50.0,7.67,49.0,8.8,13.84,47.59359,-54.27349
2021-10-04 15:24:01+00:00,34.0,6.8,33.0,7.96,13.84,47.59359,-54.27349
2021-10-04 15:34:01+00:00,40.0,7.36,41.0,8.14,13.84,47.59359,-54.27349
2021-10-04 15:44:01+00:00,36.0,6.17,39.0,6.93,13.84,47.59359,-54.27349
2021-10-04 15:54:01+00:00,47.0,7.22,62.0,9.89,13.84,47.59359,-54.27349
2021-10-04 16:04:01+00:00,43.0,6.56,58.0,9.22,13.84,47.59359,-54.27349
2021-10-04 16:14:01+00:00,38.0,7.14,45.0,8.3,13.92,47.59359,-54.27349
2021-10-04 16:24:01+00:00,37.0,6.84,37.0,8.19,13.92,47.59359,-54.27349
2021-10-04 16:34:01+00:00,36.0,7.19,49.0,8.73,13.92,47.59359,-54.27349
2021-10-04 16:44:01+00:00,31.0,6.76,34.0,7.46,13.92,47.59359,-54.27349
2021-10-04 16:54:01+00:00,49.0,6.92,58.0,8.02,13.92,47.59359,-54.27349
2021-10-04 17:04:01+00:00,48.0,7.06,47.0,8.28,13.92,47.59359,-54.27349
2021-10-04 17:14:01+00:00,53.0,7.24,54.0,8.13,14.0,47.59359,-54.27349
2021-10-04 17:24:01+00:00,43.0,7.17,45.0,8.33,14.0,47.59359,-54.27349
2021-10-04 17:34:01+00:00,41.0,7.11,38.0,7.88,14.0,47.59359,-54.27349
2021-10-04 17:44:01+00:00,37.0,7.18,38.0,8.22,14.0,47.59359,-54.27349
2021-10-04 17:54:01+00:00,42.0,8.45,40.0,9.38,14.0,47.59359,-54.27349
2021-10-04 18:04:01+00:00,32.0,7.8,34.0,8.72,14.0,47.59359,-54.27349
2021-10-04 18:14:01+00:00,38.0,6.67,39.0,7.29,13.92,47.59359,-54.27349
2021-10-04 18:24:01+00:00,28.0,6.8,25.0,7.91,13.92,47.59359,-54.27349
2021-10-04 18:34:01+00:00,30.0,8.29,23.0,9.21,13.92,47.59359,-54.27349
2021-10-04 18:44:01+00:00,31.0,7.23,34.0,8.65,13.92,47.59359,-54.27349
2021-10-04 18:54:01+00:00,16.0,8.32,15.0,9.32,13.92,47.59359,-54.27349
2021-10-04 19:04:01+00:00,19.0,6.52,17.0,7.95,13.92,47.59359,-54.27349
2021-10-04 19:14:01+00:00,28.0,7.52,26.0,8.36,13.84,47.59359,-54.27349
2021-10-04 19:24:01+00:00,16.0,8.17,19.0,9.29,13.84,47.59359,-54.27349
2021-10-04 19:34:01+00:00,25.0,7.04,28.0,8.04,13.84,47.59359,-54.27349
2021-10-04 19:44:01+00:00,10.0,6.91,15.0,8.09,13.84,47.59359,-54.27349
2021-10-04 19:54:01+00:00,14.0,6.21,17.0,7.14,13.84,47.59359,-54.27349
2021-10-04 20:04:01+00:00,16.0,7.49,6.0,8.48,13.84,47.59359,-54.27349
2021-10-04 20:14:01+00:00,16.0,8.18,16.0,9.24,13.6,47.59359,-54.27349
2021-10-04 20:24:01+00:00,11.0,5.96,12.0,7.55,13.6,47.59359,-54.27349
2021-10-04 20:34:01+00:00,19.0,7.22,20.0,8.24,13.6,47.59359,-54.27349
2021-10-04 20:44:01+00:00,355.0,6.76,357.0,7.95,13.6,47.59359,-54.27349
2021-10-04 20:54:01+00:00,8.0,7.13,3.0,9.19,13.6,47.59359,-54.27349
2021-10-04 21:04:01+00:00,30.0,7.04,33.0,7.77,13.6,47.59359,-54.27349
2021-10-04 21:14:01+00:00,19.0,7.27,19.0,8.39,13.05,47.59359,-54.27349
2021-10-04 21:24:01+00:00,11.0,7.2,6.0,8.27,13.05,47.59359,-54.27349
2021-10-04 21:34:01+00:00,5.0,6.95,2.0,8.06,13.05,47.59359,-54.27349
2021-10-04 21:44:01+00:00,9.0,6.73,6.0,8.37,13.05,47.59359,-54.27349
2021-10-04 21:54:01+00:00,5.0,7.04,1.0,8.06,13.05,47.59359,-54.27349
2021-10-04 22:04:01+00:00,5.0,7.15,4.0,8.29,13.05,47.59359,-54.27349
2021-10-04 22:14:01+00:00,5.0,7.01,5.0,7.82,12.65,47.59359,-54.27349
2021-10-04 22:24:01+00:00,355.0,7.56,356.0,8.38,12.65,47.59359,-54.27349
2021-10-04 22:34:01+00:00,353.0,6.68,351.0,7.73,12.65,47.59359,-54.27349
2021-10-04 22:44:01+00:00,5.0,7.29,15.0,8.95,12.65,47.59359,-54.27349
2021-10-04 22:54:01+00:00,358.0,6.01,357.0,8.53,12.65,47.59359,-54.27349
2021-10-04 23:04:01+00:00,349.0,6.24,350.0,7.22,12.65,47.59359,-54.27349
2021-10-04 23:14:01+00:00,354.0,5.84,2.0,6.65,12.65,47.59359,-54.27349
2021-10-04 23:24:01+00:00,348.0,6.74,349.0,7.93,12.65,47.59359,-54.27349
2021-10-04 23:34:01+00:00,343.0,6.9,338.0,8.06,12.65,47.59359,-54.27349
2021-10-04 23:44:01+00:00,346.0,8.21,353.0,9.96,12.65,47.59359,-54.27349
2021-10-04 23:54:01+00:00,348.0,6.59,354.0,7.61,12.65,47.59359,-54.27349
